Location: NJAA Observatory
(40.6819°N, 74.8979°W)
Time: 11:29:25
(UTC-04:00)

Cosmos 1328 Rocket - Visible Passes

Search period start: 17 August 2017 00:00
Search period end: 27 August 2017 00:00
Orbit: 602 x 627 km, 82.5° (Epoch: 16 August)

Date Brightness Start Highest point End Pass type
(mag) Time Alt. Az. Time Alt. Az. Time Alt. Az.
17 Aug 3.7 04:32:28 17° S 04:35:45 70° E 04:40:04 10° NNE visible
18 Aug 6.5 03:13:59 10° E 03:14:33 10° E 03:15:06 10° ENE visible
18 Aug 3.5 04:48:54 21° SSW 04:51:41 62° W 04:55:59 10° N visible
19 Aug 5.9 03:28:11 14° ESE 03:30:12 19° E 03:33:15 10° NE visible
19 Aug 4.3 05:05:17 19° SW 05:07:42 33° WNW 05:11:39 10° N visible
20 Aug 5.0 03:44:33 27° SE 03:45:57 34° E 03:49:52 10° NNE visible
20 Aug 5.0 05:21:38 14° WSW 05:23:48 19° WNW 05:26:57 10° NNW visible
21 Aug 3.8 04:00:51 49° SSE 04:01:47 63° E 04:06:05 10° NNE visible
21 Aug 5.6 05:38:53 10° W 05:40:01 11° WNW 05:41:10 10° NW visible
22 Aug 3.4 04:17:08 60° SW 04:17:41 68° W 04:22:03 10° N visible
23 Aug 5.9 02:56:18 17° E 02:56:18 17° E 02:59:08 10° NE visible
23 Aug 4.1 04:33:23 36° W 04:33:42 36° WNW 04:37:45 10° N visible
24 Aug 5.2 03:12:31 30° ENE 03:12:31 30° ENE 03:15:51 10° NNE visible
24 Aug 4.9 04:49:36 21° WNW 04:49:48 21° WNW 04:53:07 10° NNW visible
25 Aug 4.4 03:28:43 47° NE 03:28:43 47° NE 03:32:06 10° NNE visible
25 Aug 5.6 05:05:48 12° WNW 05:05:59 12° WNW 05:07:41 10° NW visible
26 Aug 4.3 03:44:54 47° N 03:44:54 47° N 03:48:06 10° N visible
